User: anonymous   Login
Location: Sungai Apap
(2.6167°N, 113.3833°E)
Time: 22:07:50
(UTC+00:00)
Language:

Cosmos 2278 Rocket - Orbit

View from above orbital plane
View from above orbital plane
View from above satellite
View from above satellite

Ground track
Ground track

The orbit data is extracted from the following two-line orbital elements,

1 23088U 94023B   24206.44395235 -.00000171  00000-0 -63953-4 0  9999
2 23088  70.9978 236.6372 0001551 165.1096 195.0073 14.14859072562179
Epoch (UTC): 24 July 2024 10:39:17
Eccentricity: 0.0001551
inclination: 70.9978°
perigee height: 841 km
apogee height: 844 km
right ascension of ascending node: 236.6372°
argument of perigee: 165.1096°
revolutions per day: 14.14859072
mean anomaly at epoch: 195.0073°
orbit number at epoch: 56217

The dashed part of the orbit path shows where the satellite is in the earth's shadow,  

DLR